Wind_Speed
46 47 48 49 51 52 52 51 51 53 55 56 56 55 55 55 55 57 60 64 62 58 59 60 57 58 62 61 58 57 54 53 49 46 51 50 46 48 47 45 46 45 40 37 34 28 26 32 35 36 39 40 42 45 45 40 35 33 35 39 42 42 42 43 42 40 40 43 42 42 41 38 35 35 34 33 31 27 26 28 31 33 35 36 37 38
44 45 48 49 50 50 49 49 50 51 53 54 52 52 52 53 54 55 59 62 61 57 57 59 57 56 60 60 57 55 53 51 47 46 50 48 46 46 44 43 44 43 39 36 31 28 33 38 37 36 41 44 44 46 46 42 38 38 41 44 46 48 49 49 47 43 41 42 41 40 39 35 30 29 28 30 31 31 32 33 36 39 40 42 43 44
43 45 48 47 47 46 46 47 47 49 51 51 49 49 50 52 54 55 57 60 60 57 56 57 56 55 58 59 56 54 52 50 47 47 49 48 46 45 43 43 43 41 37 34 32 34 39 40 36 34 40 45 47 47 48 45 42 42 44 47 50 51 52 52 49 44 42 41 39 37 35 33 29 25 24 25 28 30 31 33 35 38 39 40 40 40
43 45 44 43 43 44 44 45 45 47 48 47 46 47 48 51 53 54 56 59 60 58 56 55 54 54 57 58 56 54 52 49 47 47 49 49 46 44 43 43 42 39 35 34 37 41 41 40 36 37 42 44 43 44 48 47 45 46 47 51 53 53 53 52 49 47 44 42 39 36 34 33 30 26 24 24 25 26 27 28 31 33 34 34 33 33
42 42 40 40 41 41 42 42 43 44 43 42 43 45 47 50 51 52 55 58 61 58 53 51 52 53 55 57 56 53 51 49 48 48 49 49 47 44 43 42 40 37 35 37 41 45 46 43 41 41 43 42 40 42 45 47 49 50 50 53 56 56 54 51 49 48 45 43 42 39 35 34 32 30 29 30 31 30 29 29 28 29 30 30 29 30
40 38 37 39 39 39 40 40 40 41 40 41 44 45 47 49 49 51 54 56 58 55 48 47 51 52 53 56 55 52 50 49 48 49 50 50 48 44 42 40 38 37 37 40 43 48 51 49 48 47 45 43 42 41 43 44 46 50 52 54 57 57 54 52 51 49 46 46 46 42 38 38 38 38 39 39 37 35 33 31 29 29 30 28 27 28
37 35 35 37 37 37 37 38 39 40 41 42 44 45 46 48 48 50 52 52 53 52 46 46 50 52 53 54 53 50 49 49 50 49 50 52 48 43 40 39 39 39 40 42 45 48 52 54 54 51 46 46 46 44 45 43 42 47 52 53 55 55 54 52 52 51 47 45 46 45 44 46 46 45 42 41 40 40 39 37 35 33 32 31 29 27
36 33 34 35 35 35 36 38 40 40 40 41 43 44 45 47 48 49 50 50 51 49 44 45 49 51 52 52 51 50 50 50 51 50 52 53 47 41 39 39 40 41 41 43 44 47 51 55 57 54 49 47 46 46 47 45 42 45 51 52 52 52 51 51 52 52 49 47 48 49 49 50 50 47 43 40 42 43 43 43 42 39 36 34 31 29
33 31 33 33 33 34 36 38 39 38 38 41 43 43 44 46 47 47 48 49 48 45 41 43 47 49 49 49 50 50 49 49 52 53 54 53 46 41 40 40 40 41 42 42 43 46 50 53 55 55 53 51 48 47 48 48 45 47 50 52 52 50 48 48 49 51 51 49 49 50 51 51 51 50 47 44 43 44 45 46 46 44 40 36 34 34
31 30 31 32 32 34 35 35 36 37 38 40 40 40 42 44 44 45 46 46 44 40 39 42 45 46 46 47 48 48 47 49 52 54 54 50 44 40 40 40 41 42 42 42 43 46 49 52 52 53 54 54 51 49 48 49 48 49 51 52 52 50 47 47 47 49 51 52 53 53 53 53 53 51 49 46 44 45 47 47 47 46 44 41 39 40
30 29 29 31 33 34 33 33 35 37 38 38 38 40 41 41 42 42 43 43 40 37 38 41 42 42 43 45 46 46 47 48 50 52 50 45 42 40 40 41 41 42 42 43 45 46 47 48 49 52 54 54 53 51 49 50 50 49 50 52 53 51 49 49 49 49 51 53 55 56 56 57 57 56 53 51 49 48 48 49 49 48 48 46 46 48
29 28 28 31 33 33 32 33 35 37 38 38 38 39 40 40 41 41 41 40 37 35 38 40 40 40 41 43 45 45 45 46 47 48 46 43 41 41 40 40 41 43 45 45 45 45 45 45 46 49 52 52 51 51 50 50 51 50 49 50 52 53 52 52 52 51 50 50 51 53 55 57 58 58 57 55 53 52 51 51 52 53 53 52 53 55
28 26 28 30 32 31 31 33 36 37 37 37 38 39 40 41 41 40 40 38 35 36 39 40 40 39 40 43 44 44 44 44 45 47 45 41 40 40 40 41 42 44 44 44 43 44 44 45 46 48 50 50 49 49 51 52 52 51 50 50 51 52 53 53 53 52 50 49 49 50 52 54 56 57 56 55 54 54 53 53 54 55 55 55 56 57
27 26 27 29 30 29 30 33 36 37 38 37 38 40 40 41 40 39 39 37 36 37 39 41 41 40 41 42 42 42 42 42 44 45 43 39 38 37 38 40 42 41 40 40 42 43 45 47 49 49 50 50 48 47 50 52 53 53 52 52 52 52 53 52 52 51 50 50 51 52 52 53 55 56 56 57 57 57 56 55 55 54 54 54 54 54
28 27 27 28 29 28 31 34 36 37 37 37 39 39 39 39 38 38 38 38 37 39 41 42 41 39 39 39 39 39 38 39 43 44 40 36 33 31 31 33 36 36 37 40 42 43 44 48 51 52 51 49 46 46 48 51 52 52 52 52 52 52 52 52 51 51 51 52 53 54 55 56 56 57 58 58 59 59 59 58 57 56 54 52 51 50
28 28 28 28 28 28 31 34 35 35 36 37 38 37 37 38 38 38 38 38 39 40 41 40 37 36 36 36 36 37 36 37 40 41 37 32 30 28 27 29 33 35 36 37 40 42 44 46 49 51 51 49 47 46 47 49 50 50 51 51 51 52 52 51 50 50 52 54 56 57 58 59 59 59 59 60 60 60 59 58 57 55 52 50 48 46
29 28 28 28 27 28 32 33 34 35 36 36 36 37 38 40 40 39 39 39 39 39 39 38 36 35 34 34 34 34 35 35 36 36 33 30 29 30 31 32 35 36 34 34 38 42 44 45 46 48 48 48 48 47 46 47 48 49 49 50 51 52 52 51 50 50 52 55 57 59 60 60 60 60 59 58 58 58 57 56 54 52 50 48 46 44
30 29 29 27 27 29 32 33 33 36 37 37 37 37 39 40 40 40 40 40 39 38 37 37 36 35 34 34 32 28 29 33 35 35 32 28 28 31 33 34 35 34 34 35 38 40 41 42 43 45 47 47 48 47 45 44 46 47 47 48 49 51 52 52 52 53 55 57 59 59 60 60 60 60 59 57 56 56 55 54 52 50 49 48 47 46
30 30 29 27 27 29 31 32 33 36 37 37 37 37 39 40 40 39 39 39 38 37 37 37 37 35 35 35 32 26 24 31 36 35 32 30 28 29 32 33 32 31 33 36 38 39 39 40 42 43 44 45 45 44 42 42 43 43 41 41 44 48 52 53 54 55 57 57 58 59 60 61 62 62 60 58 57 56 54 53 52 51 49 49 49 49
31 30 30 29 29 30 31 32 33 35 37 37 37 39 40 40 39 39 38 38 38 38 38 39 38 36 35 35 34 31 28 32 37 36 33 31 29 28 31 33 33 31 31 34 36 38 40 41 41 41 42 43 44 43 40 38 38 38 37 35 36 41 45 48 50 52 53 53 53 55 56 58 59 59 59 58 57 56 56 54 53 52 51 51 51 51
31 31 31 31 30 30 31 32 34 36 37 37 38 40 40 39 38 38 37 37 38 39 39 40 39 37 34 35 35 33 34 37 38 35 31 30 29 29 31 33 34 32 32 32 33 35 38 40 40 40 41 42 42 41 38 35 34 37 39 37 38 41 44 46 48 50 51 51 50 51 53 54 55 56 55 55 56 56 57 57 56 55 55 55 54 54
30 30 31 32 31 31 31 33 34 35 37 38 39 39 40 40 40 40 38 38 39 39 39 40 40 36 31 32 34 34 35 37 37 34 31 29 30 30 31 32 32 32 32 31 32 33 36 38 39 38 38 38 38 37 36 35 34 35 38 41 45 48 50 52 54 55 54 52 51 51 52 53 54 54 53 53 53 54 55 57 58 58 58 57 58 58
28 29 31 32 32 32 32 32 32 34 36 38 38 39 40 41 41 41 41 39 38 39 39 40 41 39 35 34 35 34 34 34 33 32 32 31 31 32 33 34 33 33 33 33 33 33 34 35 36 36 35 35 36 36 35 34 31 31 34 42 49 53 56 57 55 55 54 52 52 52 52 52 52 52 52 52 53 53 53 54 56 57 58 58 59 59
31 31 31 31 31 32 32 31 31 33 34 35 36 39 42 43 43 43 43 42 41 41 41 41 41 41 40 39 38 36 35 33 32 31 32 34 33 34 36 37 36 34 34 35 35 34 33 32 33 34 34 34 36 36 34 31 30 31 29 33 42 48 53 56 54 53 52 51 52 53 53 53 52 53 53 52 53 53 54 55 56 57 58 59 60 60
34 33 32 31 30 31 32 32 33 33 33 33 35 38 42 43 44 45 45 45 44 45 45 44 43 43 42 39 36 33 32 34 36 34 32 35 36 35 36 37 37 35 34 36 37 36 33 31 31 32 29 29 32 36 37 35 37 41 37 35 41 42 41 43 44 46 48 50 51 53 54 55 54 54 54 54 55 56 56 57 57 58 59 59 60 61
36 35 34 33 32 32 32 33 35 34 33 34 35 37 39 40 41 43 44 44 44 45 45 44 43 43 42 39 35 29 28 34 39 36 32 33 37 37 36 36 36 36 36 38 38 37 34 31 31 29 24 24 29 36 39 40 43 49 48 46 47 46 42 41 38 36 35 37 42 45 48 52 55 57 57 56 57 58 58 58 58 58 59 59 59 59
39 37 35 34 35 36 36 35 35 34 34 37 38 38 37 37 38 40 42 44 45 46 45 43 43 43 42 42 39 35 35 38 40 38 35 33 36 39 40 40 38 38 39 40 39 39 37 32 29 28 24 23 29 34 36 39 45 52 54 54 56 55 53 52 49 45 36 26 27 33 38 41 44 49 54 55 56 58 58 58 58 58 58 58 58 57
40 39 38 37 37 38 39 38 37 37 38 40 41 40 38 38 39 38 39 43 45 46 46 46 45 45 45 45 44 44 44 45 45 45 44 42 42 42 43 45 45 44 44 44 42 42 42 36 30 28 26 27 34 42 45 45 49 55 58 61 63 61 58 54 52 50 45 35 25 21 26 32 33 36 43 47 51 54 56 58 58 58 58 58 58 58
42 40 40 40 39 38 41 43 43 42 42 43 43 41 38 38 39 38 38 40 42 44 46 46 46 46 46 47 46 44 44 46 46 46 47 48 48 47 46 47 50 52 51 50 47 45 47 44 39 36 35 37 45 53 58 60 61 64 66 67 66 63 60 55 51 48 48 46 41 33 28 26 25 28 33 38 43 48 51 55 58 59 59 60 61 61
44 43 43 44 44 43 44 46 47 46 46 46 44 40 38 38 39 39 38 40 41 43 43 44 44 45 45 45 43 41 42 44 45 45 46 47 50 53 52 48 49 53 56 56 55 53 52 52 51 49 49 50 54 59 63 66 67 68 68 67 66 64 60 56 53 50 46 45 47 46 38 27 21 22 28 35 42 46 48 52 56 58 59 61 61 63
47 47 48 49 48 47 45 46 49 49 49 48 46 44 42 42 43 42 41 40 42 44 45 44 45 46 44 39 36 40 46 48 48 49 49 49 51 56 58 54 52 53 56 59 61 61 61 62 62 63 62 63 64 65 66 68 69 69 68 67 66 64 62 59 57 55 49 44 45 46 41 34 29 27 26 31 40 46 47 50 54 55 58 61 62 63
52 52 52 52 51 48 47 50 52 53 53 52 51 50 48 47 47 47 45 40 37 40 45 48 48 49 48 44 41 45 51 53 52 53 55 54 54 56 58 59 57 57 58 60 62 63 65 67 68 70 71 71 71 72 72 72 73 74 73 72 70 68 66 63 62 61 57 51 49 49 46 44 43 41 38 35 39 45 47 49 52 54 56 58 60 61
59 57 55 55 54 52 52 54 54 54 55 56 56 55 53 52 51 52 52 48 39 36 40 45 47 50 53 55 55 56 56 55 55 57 59 58 57 57 58 59 59 60 61 62 63 64 66 68 70 72 72 73 74 75 76 77 77 77 76 75 74 72 71 68 67 68 65 60 57 56 54 52 52 52 52 51 50 51 52 54 58 59 60 60 60 61
62 61 59 59 58 57 56 56 54 53 54 57 59 60 58 57 56 57 58 57 52 47 43 42 43 47 53 59 61 61 60 58 57 58 59 58 58 59 59 59 59 60 61 63 65 66 67 69 71 73 75 76 77 77 78 78 78 78 77 76 74 73 73 72 70 71 72 69 65 63 61 58 57 57 59 60 61 63 66 69 71 72 73 73 73 73
63 62 61 62 61 58 57 57 56 54 53 55 58 61 61 60 61 62 61 59 58 57 54 51 49 50 55 58 59 59 59 58 58 57 57 57 58 58 59 59 60 60 60 62 64 65 66 67 70 72 74 76 77 78 78 78 78 77 77 76 75 73 72 73 73 73 73 73 71 70 69 69 69 68 68 69 71 74 77 81 82 81 81 81 82 81
62 63 63 63 62 60 59 59 58 56 54 54 55 59 63 64 64 65 63 61 62 62 60 59 58 57 59 58 56 56 57 57 57 57 56 57 57 56 57 59 60 61 61 61 61 61 62 63 64 67 69 71 73 75 76 77 77 77 76 75 74 74 73 73 73 73 73 73 73 73 74 75 76 77 77 78 79 82 84 86 86 84 82 81 81 80
62 63 63 64 64 62 61 60 58 58 58 57 56 57 60 62 65 66 66 65 66 65 63 62 61 61 62 60 57 56 56 55 55 55 56 57 58 57 57 57 59 60 61 60 60 59 59 59 60 62 64 66 68 69 71 72 73 73 73 72 71 72 73 73 73 72 72 73 73 73 74 75 75 76 77 78 79 80 81 82 82 82 80 79 79 79
64 64 65 66 66 65 63 61 59 60 61 60 60 60 60 62 64 66 66 67 67 67 67 66 66 66 66 64 61 59 57 56 55 55 55 57 58 58 58 58 59 60 60 60 59 58 58 57 58 60 61 62 64 65 66 67 68 68 68 68 68 68 69 69 69 70 70 71 71 72 73 73 73 74 74 75 76 76 77 79 80 80 80 80 80 80
66 67 68 69 69 68 65 63 62 63 64 63 62 62 63 65 65 66 66 67 67 67 66 66 67 68 68 66 64 62 60 59 60 60 60 61 61 61 60 61 61 61 61 61 61 60 60 60 60 61 62 63 64 65 66 67 67 66 67 67 68 68 69 69 69 69 70 70 71 72 72 73 73 73 74 74 75 76 77 79 80 81 81 81 81 81
67 68 70 71 71 70 69 67 66 66 66 66 65 64 65 67 68 70 69 67 66 65 63 62 64 66 66 64 63 62 62 63 64 65 65 65 65 65 65 64 64 64 65 65 64 64 64 64 65 65 65 65 66 66 68 69 69 68 68 69 70 70 70 70 71 71 72 73 73 74 74 75 75 75 75 76 77 79 80 80 81 82 82 82 81 81
69 70 72 72 73 73 72 70 69 68 69 69 68 67 67 68 69 72 72 69 67 65 63 62 63 64 63 62 61 61 62 63 64 65 66 66 66 66 66 66 65 66 66 66 66 67 67 68 68 68 68 68 69 69 69 70 71 71 71 71 71 72 72 72 72 73 74 74 75 75 75 75 75 76 77 78 79 80 80 80 80 80 80 79 78 77
71 72 73 74 74 74 74 73 71 70 71 71 71 70 69 69 70 72 73 71 69 67 65 64 64 64 64 63 62 62 61 61 62 62 63 64 64 64 64 64 64 65 65 65 66 67 68 68 68 68 68 69 69 69 70 70 71 71 71 71 72 72 73 73 74 74 75 76 76 76 75 75 75 75 76 76 77 77 77 77 77 77 77 77 76 75
73 72 73 75 75 75 75 74 72 72 73 73 73 73 72 71 71 72 73 73 72 70 68 67 67 67 67 66 65 64 62 62 62 63 64 64 63 62 62 62 62 63 63 64 64 65 67 67 67 68 68 68 68 69 69 70 71 71 71 71 72 73 73 73 74 75 75 76 76 77 77 76 77 77 77 78 78 78 78 78 78 78 78 78 78 77
73 73 74 76 76 75 75 74 74 74 74 74 74 74 74 73 73 73 73 74 75 74 72 70 70 71 71 69 67 65 64 64 64 65 66 66 65 63 63 63 63 63 64 64 65 65 66 67 68 68 69 69 69 69 69 70 70 71 71 72 72 73 73 74 74 75 75 76 77 77 77 77 78 78 78 79 79 80 81 81 81 81 81 81 81 81
75 75 75 76 77 76 75 75 75 75 75 75 75 75 75 75 76 75 75 75 76 77 76 75 75 74 73 72 70 69 68 68 68 68 68 68 67 66 66 66 67 67 68 68 68 68 68 68 69 70 71 71 71 71 71 72 72 72 72 73 73 74 74 74 75 75 75 76 77 77 77 78 79 79 80 80 80 81 81 82 83 83 83 84 84 83
76 77 77 78 78 78 77 76 77 77 77 77 76 76 76 77 78 78 78 78 79 80 80 80 79 78 76 75 74 74 73 72 72 71 71 71 71 70 71 71 71 71 72 73 72 72 72 72 73 73 73 73 73 73 74 74 75 74 74 74 74 75 75 76 77 77 78 78 79 79 80 80 80 81 81 82 82 83 83 84 84 85 85 86 86 86
75 77 78 79 80 80 80 79 79 79 79 79 78 78 79 79 80 81 81 81 82 82 82 83 82 82 80 79 78 78 77 76 76 75 74 74 74 74 74 75 75 75 76 76 76 75 75 76 76 77 77 76 76 76 77 77 77 77 77 77 77 78 78 79 80 80 81 81 82 82 82 83 83 84 84 85 85 86 86 87 87 87 88 88 88 89
71 74 76 78 80 81 81 81 81 81 81 81 81 82 82 82 82 83 83 83 84 84 84 85 85 84 84 83 82 81 80 79 79 79 78 77 77 77 78 78 78 78 79 80 79 79 79 79 80 80 80 80 80 80 80 80 80 80 80 80 81 81 82 82 83 83 84 85 85 85 86 86 87 87 88 88 89 90 90 90 90 90 90 90 91 91
66 70 72 73 76 79 81 82 83 83 83 83 84 84 85 85 85 85 86 86 86 86 87 87 87 87 86 86 85 84 83 83 83 82 82 81 80 80 80 81 81 82 82 83 83 82 82 83 84 84 83 83 84 84 84 84 84 84 84 84 84 85 85 86 86 87 87 88 88 89 89 90 90 91 91 92 92 92 93 92 92 91 91 90 90 90
61 65 67 69 70 72 75 77 79 81 83 84 85 86 87 87 87 88 88 89 89 89 90 90 90 90 89 88 87 87 87 87 87 87 86 85 84 84 84 84 85 85 85 86 86 85 86 86 87 87 87 87 87 87 88 88 88 88 88 88 88 88 89 89 89 90 90 91 91 91 92 92 92 92 92 92 92 92 92 91 91 90 90 89 89 89
54 58 61 64 66 68 70 71 73 75 78 80 81 83 85 86 88 89 90 91 91 91 92 92 93 92 91 91 90 90 90 91 92 91 89 88 87 87 88 88 89 88 89 89 89 89 89 90 90 90 91 91 91 91 91 91 91 91 91 92 92 92 92 92 93 93 94 94 94 94 94 94 95 95 94 93 93 92 92 92 92 91 90 90 90 90
Wind_Direction
260 260 258 255 253 252 251 251 250 249 249 248 248 248 248 248 247 247 247 247 246 243 245 245 243 244 247 248 248 250 250 251 251 250 252 252 250 250 250 248 249 249 248 245 241 231 218 218 223 230 237 241 243 244 245 248 255 252 245 247 252 257 260 261 260 260 264 270 276 279 280 281 282 284 282 278 276 275 269 264 261 259 258 258 259 260
260 258 255 253 252 252 251 251 250 249 248 248 248 248 247 246 245 244 244 246 245 242 242 244 242 241 246 248 247 248 248 248 248 247 249 251 249 249 249 247 246 246 243 240 236 219 209 215 221 228 236 240 244 245 245 247 251 249 246 247 251 256 257 255 257 259 260 265 274 278 278 278 280 283 283 277 273 272 271 270 268 267 267 267 269 270
259 256 254 254 253 253 252 251 249 248 247 247 246 245 243 243 242 241 242 244 244 241 239 240 241 241 243 246 245 245 245 245 245 244 247 248 247 247 247 246 245 244 241 236 227 213 208 213 218 229 240 243 245 246 246 248 248 246 246 247 249 253 255 253 255 258 260 264 270 276 278 278 279 283 287 283 277 276 278 279 277 276 277 277 278 278
259 256 255 256 254 253 251 250 248 246 246 246 244 243 241 241 240 240 240 242 242 239 236 237 240 240 241 243 243 242 242 243 243 243 244 246 245 243 244 244 245 244 240 232 222 214 213 211 214 228 239 243 245 245 247 250 249 246 246 247 248 251 254 254 255 257 261 264 266 270 274 272 270 273 281 282 280 280 279 280 280 280 281 282 282 281
259 257 256 255 253 252 249 248 246 245 245 244 242 240 239 239 239 239 240 241 242 240 237 237 238 238 239 241 241 241 241 241 242 242 244 245 243 241 241 242 243 241 236 232 224 218 217 214 215 226 234 241 248 248 248 251 251 248 246 246 246 249 252 254 255 256 259 261 260 262 265 262 260 264 270 274 278 279 277 278 279 279 283 284 283 282
259 257 256 254 252 250 248 245 244 242 240 238 238 237 237 238 237 238 239 241 244 244 239 237 238 237 237 240 241 241 242 241 241 242 243 244 243 241 241 240 240 237 233 231 227 223 221 221 224 230 237 244 250 251 251 252 251 248 245 244 245 248 250 252 254 256 258 260 259 260 262 262 262 266 269 272 276 278 276 277 277 277 282 284 285 285
258 256 255 253 251 249 246 243 240 238 236 235 236 235 236 236 235 236 239 240 243 244 239 236 236 236 236 239 240 240 239 240 240 241 242 243 243 241 241 240 238 235 232 230 229 226 226 229 232 237 243 248 250 251 251 253 252 245 243 244 244 247 248 249 252 254 256 258 258 261 263 265 269 271 272 273 274 276 278 280 281 282 283 283 284 287
257 255 254 252 249 247 244 241 238 237 236 235 235 234 234 235 235 236 238 239 240 241 238 236 236 237 237 239 239 238 237 238 239 239 241 242 242 241 240 239 238 236 234 232 231 229 228 231 235 239 245 250 250 249 248 252 251 242 240 244 244 246 248 249 250 251 253 255 257 261 263 266 271 273 275 276 275 277 279 282 285 286 286 284 281 283
258 255 254 251 248 245 242 240 239 237 235 235 235 234 235 236 237 237 238 239 240 240 238 237 237 237 237 239 240 239 237 238 239 238 240 242 241 240 239 239 239 238 237 235 234 232 230 231 235 239 244 247 248 248 249 252 250 241 240 244 243 243 246 248 249 250 252 255 257 260 263 267 271 274 278 279 276 276 277 279 282 283 284 283 279 279
256 254 253 251 246 244 242 240 238 235 234 235 235 235 235 236 237 238 239 240 240 240 238 237 237 237 237 239 240 240 238 238 239 239 240 242 242 241 240 240 240 240 239 238 236 235 233 232 233 237 242 243 245 248 249 249 246 242 243 244 241 240 242 245 247 249 251 255 257 260 264 267 271 274 277 278 276 275 275 276 277 278 279 280 279 280
253 252 251 249 245 242 240 236 235 234 234 234 234 233 234 235 236 238 239 240 239 238 238 237 237 238 239 239 239 239 238 238 241 242 243 243 243 242 241 241 241 241 240 239 237 236 235 234 234 236 238 239 242 245 244 243 242 242 245 244 240 239 240 243 246 248 250 254 257 260 263 266 269 272 273 274 275 275 274 274 273 273 274 275 278 281
252 251 249 246 244 242 238 233 231 232 232 231 231 232 233 233 235 236 237 238 236 235 237 237 235 236 238 239 239 238 239 240 242 244 243 242 241 242 241 241 241 241 239 238 237 237 237 236 234 233 233 235 239 241 240 238 239 242 246 246 243 241 242 245 247 249 252 256 259 262 263 266 269 271 272 273 274 274 274 274 273 274 274 275 276 279
251 250 249 246 244 242 238 233 231 230 230 230 230 230 231 232 233 234 236 236 234 233 236 236 234 233 235 238 238 238 239 240 242 243 241 239 239 240 240 240 240 240 240 240 238 237 234 232 230 229 229 233 238 240 239 237 237 241 247 248 247 246 247 249 251 253 255 259 264 267 267 268 269 270 271 273 274 275 276 276 277 277 277 278 278 278
249 247 247 246 244 241 236 232 229 229 229 228 229 229 231 232 233 234 235 234 232 232 234 235 233 232 234 237 239 240 241 242 242 243 241 239 238 240 241 242 242 242 241 240 236 234 231 228 227 227 228 233 239 242 239 236 237 241 245 248 249 251 253 254 255 256 258 262 267 270 270 270 270 270 271 273 274 276 278 279 280 281 281 280 280 280
248 244 243 242 240 238 234 231 229 229 229 228 229 230 231 233 233 234 235 234 232 231 234 235 235 234 236 239 241 241 242 243 244 244 242 240 237 238 242 242 240 238 236 235 233 231 230 229 228 228 229 233 238 241 238 236 237 241 244 246 249 253 255 256 258 259 262 266 270 272 272 272 272 272 273 274 276 277 279 280 282 283 283 283 282 281
248 245 242 240 237 235 233 231 230 229 229 229 229 229 231 232 232 233 233 234 233 234 236 238 238 239 239 241 242 242 240 242 246 246 243 238 233 231 235 235 233 230 229 231 231 229 229 230 230 230 231 233 236 238 237 236 238 242 245 246 249 252 255 257 260 264 267 271 273 275 276 276 276 276 276 277 278 279 280 281 281 282 282 281 281 279
246 244 242 240 237 234 233 230 228 227 227 229 230 229 229 230 230 230 230 231 232 234 237 239 238 237 237 238 240 242 242 243 245 246 242 235 228 225 227 230 231 229 226 226 226 225 227 229 230 230 231 232 233 235 237 238 241 244 247 248 249 251 254 258 263 266 268 272 274 275 276 277 277 278 278 279 279 279 279 280 280 279 278 277 276 274
245 243 242 239 236 233 233 230 226 225 225 225 227 228 229 230 230 230 231 231 232 233 235 237 236 234 234 233 234 239 248 248 245 243 242 235 227 225 227 230 233 232 227 224 224 223 225 228 229 230 230 232 235 237 239 241 243 245 249 252 252 253 255 259 263 266 269 270 272 273 274 275 276 277 278 278 278 277 277 276 276 275 274 273 271 270
246 243 240 237 233 231 232 230 226 226 225 224 225 226 228 229 230 231 232 233 233 232 232 234 234 233 232 231 227 223 235 249 247 243 241 236 230 228 228 229 232 230 225 226 226 224 224 226 229 230 231 234 237 238 239 242 243 246 250 253 255 254 255 257 261 265 267 268 270 271 271 272 274 275 277 277 277 276 275 273 273 272 271 271 270 269
245 244 241 236 231 229 230 228 225 225 225 224 223 225 227 228 229 230 231 233 233 231 231 231 231 230 231 232 229 219 219 235 243 241 238 236 233 231 229 228 230 228 225 225 225 224 224 224 228 231 233 234 236 237 240 243 246 249 249 250 253 254 254 255 258 261 264 266 268 270 271 272 273 275 276 276 276 276 274 272 271 270 270 270 270 270
242 241 241 237 232 229 229 227 224 224 224 223 223 225 227 227 227 228 228 229 231 231 230 231 229 229 233 236 233 227 223 229 237 240 237 235 233 230 228 227 229 229 228 227 226 225 225 225 228 233 235 236 237 238 242 247 251 251 249 250 252 252 254 256 258 260 263 266 270 271 272 273 273 273 274 274 274 274 274 273 272 271 271 271 271 271
243 242 241 239 235 231 229 228 226 225 225 224 223 225 226 226 226 226 225 225 228 230 231 233 231 226 228 235 233 229 230 234 240 243 238 233 229 225 224 223 223 226 228 229 229 229 229 229 231 234 238 240 240 241 245 249 253 255 259 262 259 256 258 260 262 264 268 271 274 275 275 274 272 272 272 272 272 272 272 272 272 272 273 274 274 274
239 240 240 239 236 234 232 230 228 226 226 226 225 226 227 227 227 228 226 224 225 228 229 232 233 225 219 226 231 229 232 238 243 247 245 236 227 222 223 222 223 226 227 226 227 230 232 233 234 236 238 239 239 241 245 246 247 253 261 266 264 261 261 261 262 267 271 274 276 276 275 274 273 273 273 272 272 272 272 271 271 272 273 274 274 274
232 233 236 237 236 236 234 232 230 229 229 229 228 227 227 226 226 227 227 225 222 224 225 227 232 229 222 224 229 230 231 234 236 241 246 243 234 227 225 223 222 223 221 220 221 225 228 229 230 231 233 237 237 237 237 234 232 234 239 254 264 263 260 261 267 274 276 276 276 275 274 273 273 272 271 271 272 273 274 274 274 273 273 273 273 274
232 231 232 234 235 236 234 232 231 231 230 230 230 231 231 230 229 228 229 229 227 227 228 227 229 230 227 225 226 228 232 235 234 232 237 244 241 234 227 221 218 217 217 217 219 220 222 224 225 225 230 242 244 238 235 231 232 234 235 246 261 265 261 264 273 281 282 280 278 275 273 272 271 270 269 270 271 273 274 275 275 275 274 274 274 274
231 229 229 230 231 233 235 234 235 234 232 232 233 233 234 234 233 232 231 232 234 235 236 236 235 237 236 232 227 222 224 232 232 226 226 237 242 237 228 220 216 215 216 216 217 217 217 217 219 219 224 239 244 241 241 239 240 243 243 247 255 261 263 266 271 275 279 285 288 287 282 277 273 271 270 271 272 273 273 273 273 273 273 273 274 274
232 227 225 225 226 228 231 234 237 238 236 237 237 235 235 236 236 236 234 232 232 234 237 238 239 241 241 238 230 220 217 224 227 221 218 225 235 236 231 223 218 215 214 215 216 214 213 211 212 216 222 230 234 235 235 234 235 237 240 248 256 261 265 268 270 268 264 273 293 299 295 288 281 275 272 272 273 274 273 272 271 271 270 271 271 272
234 228 223 222 223 225 227 229 232 235 236 238 239 237 236 237 237 237 236 235 235 234 234 234 235 237 238 238 235 228 225 229 232 229 225 224 228 232 232 227 221 217 216 218 216 213 211 211 211 214 218 222 223 223 222 224 228 232 240 252 260 263 265 268 270 268 260 254 259 275 286 291 292 286 279 276 275 275 273 271 269 268 268 268 269 270
233 230 226 224 223 223 224 225 226 230 233 236 239 240 240 242 241 240 239 238 238 238 237 235 235 235 235 238 238 235 233 234 235 235 232 227 227 230 233 231 226 222 221 220 218 214 211 212 211 209 211 217 220 221 224 230 235 240 247 255 260 263 265 266 267 267 265 260 254 252 261 275 286 288 286 283 280 278 274 270 267 266 266 267 267 268
229 228 228 228 225 222 222 223 224 227 231 234 235 236 239 242 244 243 242 240 238 238 238 237 237 236 235 237 239 236 233 230 229 232 234 232 230 232 235 235 231 228 226 225 222 218 215 216 217 215 217 223 227 227 231 237 243 247 252 257 261 262 263 262 262 263 265 263 259 254 253 256 265 278 286 285 280 276 273 270 267 265 265 266 267 268
225 226 227 229 228 226 224 224 224 224 227 232 233 231 229 232 237 239 240 241 240 239 238 236 237 238 236 232 229 227 227 225 223 226 231 234 234 235 236 236 233 230 229 228 226 224 222 223 225 226 228 232 236 237 239 243 247 251 254 258 260 261 261 259 259 259 259 256 253 251 245 241 246 256 267 279 279 274 271 270 268 266 265 265 266 268
222 225 227 229 231 230 228 226 224 222 222 227 232 232 230 229 233 236 237 238 241 244 244 241 237 237 237 232 224 221 224 225 223 224 229 234 237 237 237 237 236 232 229 228 227 227 228 229 231 234 236 238 241 243 244 247 249 252 254 256 258 258 258 257 256 256 254 249 246 244 239 238 244 246 246 255 266 268 267 267 266 266 266 266 266 268
221 225 226 229 231 231 231 230 228 224 223 225 229 233 233 232 233 237 239 238 236 238 244 245 242 238 237 236 233 231 231 231 231 231 234 238 240 241 241 240 239 236 233 231 229 229 230 232 235 237 239 241 243 245 247 248 250 251 252 254 256 256 256 255 253 252 251 247 242 240 239 241 245 246 244 244 250 257 263 264 264 265 266 267 268 270
223 226 227 228 230 230 232 234 233 229 227 227 228 231 233 234 234 237 240 240 237 233 233 237 241 240 238 236 237 239 240 241 240 239 240 242 243 244 245 245 243 242 239 236 235 234 235 235 237 238 240 242 244 247 249 250 250 251 252 253 254 255 254 254 252 251 251 249 244 240 239 241 243 245 245 245 247 253 260 264 265 266 267 268 270 273
226 228 229 230 231 231 231 234 235 233 230 229 229 231 233 234 235 236 238 241 242 240 237 235 236 239 241 240 240 242 244 245 246 245 245 244 244 245 246 247 248 248 245 243 241 240 240 240 240 240 242 243 245 247 249 250 251 252 253 254 254 255 255 254 254 253 252 252 250 245 242 242 243 245 247 249 250 254 258 262 265 268 269 270 272 274
228 229 231 232 233 232 231 232 234 235 234 233 231 232 233 234 236 237 238 239 241 242 243 241 239 240 244 247 246 245 245 246 247 248 248 247 247 247 248 248 248 249 249 248 247 246 246 245 245 244 244 245 246 247 248 250 251 251 252 253 254 254 254 254 254 254 254 254 253 252 250 248 249 250 252 253 255 256 259 263 266 268 270 271 272 273
229 230 232 234 235 235 233 233 233 235 236 236 234 235 235 236 237 238 239 239 240 241 243 244 244 244 245 247 248 248 247 247 247 248 248 248 249 250 250 249 248 249 250 250 250 250 251 251 251 251 250 249 249 249 249 250 251 252 252 253 254 254 254 254 254 254 254 254 254 254 254 254 255 255 256 257 259 260 262 265 267 268 269 270 270 270
228 229 231 234 236 237 236 235 234 235 235 236 236 237 238 239 239 239 239 240 240 241 242 243 245 246 246 247 247 247 248 248 248 248 248 248 248 249 250 249 249 250 251 252 253 253 253 254 254 255 255 255 254 254 254 254 254 255 254 255 255 255 256 256 256 256 256 256 255 255 256 257 257 258 259 260 261 263 264 265 266 267 268 268 269 269
226 228 230 233 235 237 237 237 236 237 237 237 237 238 239 241 242 242 241 240 241 241 242 243 244 246 247 249 249 250 250 250 249 249 249 248 248 248 249 250 251 251 252 254 255 256 255 256 256 256 256 256 257 257 258 258 257 257 257 257 257 256 256 256 256 256 256 256 256 256 256 257 258 259 260 261 262 262 263 264 265 266 267 268 268 269
225 227 229 232 234 236 237 237 237 238 239 239 239 238 240 242 244 245 245 244 244 245 245 246 247 248 249 250 251 251 251 251 251 251 251 251 251 251 252 252 253 254 255 256 257 258 258 258 258 258 258 258 259 259 260 261 261 260 260 261 261 260 260 259 259 258 258 257 256 256 256 256 257 258 259 259 260 261 262 263 264 265 266 267 268 269
224 226 229 231 233 235 236 236 236 237 239 241 241 240 240 242 245 247 249 249 249 249 249 249 249 250 251 252 251 251 250 250 251 252 253 253 253 254 255 255 256 256 257 258 259 259 259 259 260 260 260 260 260 261 261 262 263 264 264 264 265 265 265 265 265 265 264 263 263 262 261 260 260 260 260 260 260 261 262 263 264 265 266 267 268 268
226 227 229 231 233 235 236 237 237 238 239 241 242 243 243 243 246 248 250 251 250 250 250 249 249 250 250 251 252 252 252 253 253 253 254 254 254 254 255 256 257 258 258 259 259 259 259 259 259 260 260 260 261 261 261 262 262 263 264 264 265 266 266 267 267 268 268 269 269 269 269 269 268 268 267 267 267 268 268 268 269 269 270 270 270 270
229 229 230 233 234 236 237 239 239 239 240 241 242 244 245 245 246 249 251 252 252 251 250 250 251 251 251 251 251 252 253 254 255 256 256 256 256 256 255 255 256 256 256 256 256 257 258 259 259 259 259 259 260 260 261 262 262 263 263 263 264 264 265 265 266 267 268 269 270 270 271 272 272 272 273 273 273 274 274 274 274 274 274 274 274 274
231 232 232 235 237 237 239 240 241 242 242 243 243 245 246 246 247 248 250 252 254 254 253 252 252 252 253 254 254 254 254 254 255 256 257 258 258 258 257 257 257 257 256 255 254 255 256 257 259 259 260 260 260 260 261 261 262 263 263 264 264 265 265 266 266 267 268 269 269 270 271 271 272 272 273 273 274 275 275 276 276 276 276 277 277 277
233 234 234 236 238 239 240 241 242 243 244 245 245 246 247 248 249 249 249 250 252 254 255 254 254 254 255 255 256 255 255 254 254 255 256 257 258 258 258 258 258 258 258 258 257 256 257 257 258 259 260 261 261 262 262 263 263 264 265 266 266 267 268 269 269 270 270 270 271 271 272 272 272 273 273 273 274 274 274 275 275 276 276 276 276 276
234 235 236 237 239 240 241 241 242 243 245 246 246 247 248 249 250 250 251 251 252 253 254 255 256 256 256 256 256 256 255 255 255 255 256 256 257 257 258 258 259 259 260 260 260 260 260 260 261 261 262 262 263 263 264 264 265 266 266 267 268 269 269 270 271 271 271 272 272 272 273 273 274 274 274 275 275 275 275 275 275 275 275 275 276 276
237 237 238 239 241 242 242 243 243 243 244 245 246 247 248 248 249 250 251 252 253 254 255 256 257 258 258 258 258 258 258 258 258 257 257 257 258 258 259 259 260 260 261 262 262 262 263 263 263 264 264 265 265 265 266 266 267 267 268 268 268 269 269 270 270 271 272 272 272 273 273 274 274 275 275 275 275 275 275 275 275 275 275 275 275 275
239 240 240 240 242 243 244 245 246 245 245 246 246 247 247 248 249 250 251 252 253 254 255 256 257 258 259 259 259 260 260 260 260 260 259 259 259 260 260 261 261 262 262 263 263 264 264 265 265 265 265 266 266 266 266 266 267 267 267 268 268 269 269 270 270 271 272 273 273 274 274 275 275 275 275 275 275 275 275 275 275 275 274 274 274 274
239 241 242 242 243 244 245 246 247 248 248 248 248 248 249 249 249 250 251 252 253 254 254 255 256 257 258 259 260 260 261 261 261 262 262 261 261 261 261 261 261 262 262 263 263 264 264 265 265 266 266 266 266 267 267 267 267 267 267 268 268 268 269 269 270 271 271 272 272 273 273 274 274 274 274 274 274 274 274 274 275 275 275 275 274 274
239 241 243 244 245 245 245 246 247 248 249 249 250 250 250 251 251 251 251 252 253 253 254 255 256 257 257 258 259 260 261 261 261 261 261 261 262 262 262 262 262 262 262 262 263 263 264 264 265 265 266 266 266 267 267 268 268 269 269 270 270 270 271 271 271 271 272 272 272 273 273 273 274 274 274 274 274 275 275 276 276 276 276 276 277 277
243 243 244 246 247 247 247 247 247 248 249 249 250 251 251 252 252 252 252 253 253 254 255 255 256 257 258 258 259 259 260 260 261 261 261 261 262 262 262 263 263 263 263 262 263 263 263 263 264 264 265 266 266 267 267 268 268 269 269 270 271 271 272 272 273 273 273 274 274 275 275 275 276 276 276 276 277 277 278 278 278 278 278 278 278 278
Height
10566 10567 10567 10567 10566 10567 10571 10574 10578 10579 10579 10582 10586 10591 10596 10600 10603 10606 10604 10601 10609 10620 10621 10624 10633 10632 10627 10632 10640 10645 10651 10654 10661 10663 10657 10662 10670 10672 10679 10683 10683 10686 10692 10696 10702 10710 10710 10703 10702 10706 10705 10699 10697 10698 10702 10706 10707 10709 10707 10703 10700 10697 10694 10692 10690 10690 10691 10690 10690 10689 10687 10685 10685 10685 10685 10685 10685 10686 10687 10687 10687 10687 10688 10690 10691 10692
10560 10560 10557 10557 10559 10563 10566 10569 10572 10573 10574 10577 10582 10587 10591 10593 10596 10598 10596 10594 10601 10612 10616 10617 10624 10628 10623 10626 10635 10641 10645 10650 10655 10656 10652 10657 10664 10666 10672 10675 10676 10681 10687 10691 10697 10702 10699 10692 10694 10696 10692 10690 10690 10692 10697 10701 10703 10704 10702 10700 10699 10696 10692 10690 10690 10690 10690 10690 10689 10686 10683 10682 10682 10683 10683 10683 10684 10685 10685 10686 10685 10685 10685 10686 10687 10688
10553 10551 10550 10553 10556 10559 10561 10563 10566 10567 10568 10572 10578 10581 10584 10585 10586 10588 10588 10588 10593 10603 10610 10611 10616 10623 10620 10621 10629 10635 10639 10645 10650 10650 10648 10651 10658 10662 10665 10667 10670 10675 10683 10688 10690 10692 10688 10683 10685 10683 10679 10682 10685 10687 10691 10694 10696 10698 10698 10696 10695 10692 10689 10689 10690 10689 10689 10688 10686 10683 10679 10678 10679 10680 10682 10682 10682 10682 10683 10682 10682 10681 10680 10681 10682 10683
10545 10544 10546 10550 10552 10554 10556 10557 10560 10561 10563 10569 10572 10575 10577 10577 10578 10581 10582 10581 10584 10593 10603 10608 10612 10616 10615 10616 10623 10629 10634 10640 10643 10644 10643 10645 10652 10657 10659 10661 10665 10672 10678 10680 10680 10681 10679 10677 10676 10673 10672 10677 10681 10683 10685 10686 10688 10691 10693 10691 10690 10688 10685 10686 10688 10687 10686 10685 10682 10679 10676 10675 10676 10678 10679 10679 10679 10679 10679 10679 10678 10677 10677 10677 10678 10679
10538 10540 10544 10545 10546 10548 10550 10552 10554 10556 10560 10564 10566 10568 10569 10570 10573 10575 10574 10573 10576 10586 10599 10606 10608 10609 10609 10611 10617 10624 10630 10635 10637 10638 10637 10639 10644 10650 10655 10659 10663 10668 10670 10670 10670 10673 10672 10671 10669 10667 10669 10673 10676 10677 10678 10679 10680 10684 10686 10686 10685 10684 10683 10683 10683 10683 10682 10680 10677 10675 10674 10673 10674 10675 10676 10677 10678 10678 10677 10676 10676 10676 10675 10675 10675 10675
10533 10537 10539 10538 10540 10542 10545 10547 10549 10552 10555 10557 10558 10561 10562 10564 10568 10568 10568 10570 10573 10583 10597 10602 10602 10604 10605 10606 10612 10621 10626 10630 10631 10631 10631 10632 10637 10645 10652 10657 10660 10663 10663 10663 10664 10665 10666 10666 10665 10664 10667 10669 10670 10671 10673 10673 10674 10677 10680 10681 10681 10680 10679 10679 10679 10679 10678 10675 10673 10672 10671 10670 10671 10672 10673 10675 10677 10677 10676 10675 10675 10674 10674 10673 10672 10672
10528 10532 10533 10533 10535 10538 10540 10542 10543 10545 10549 10551 10552 10555 10556 10558 10562 10561 10563 10568 10571 10579 10592 10597 10596 10598 10600 10602 10609 10617 10621 10623 10624 10626 10625 10624 10632 10642 10648 10653 10654 10656 10657 10657 10658 10659 10661 10661 10661 10662 10664 10664 10664 10665 10667 10668 10670 10673 10674 10675 10676 10676 10676 10676 10676 10676 10675 10672 10671 10670 10668 10666 10665 10667 10670 10673 10674 10673 10673 10673 10673 10672 10672 10671 10670 10669
10524 10528 10528 10528 10531 10533 10535 10536 10537 10541 10545 10547 10547 10549 10551 10553 10556 10557 10560 10564 10567 10575 10585 10590 10590 10593 10597 10600 10604 10609 10614 10617 10617 10619 10618 10619 10630 10640 10644 10647 10647 10649 10651 10652 10654 10655 10657 10657 10657 10659 10659 10658 10657 10660 10661 10663 10667 10668 10668 10669 10671 10671 10672 10672 10672 10672 10671 10670 10668 10666 10664 10662 10661 10662 10666 10668 10668 10669 10669 10669 10669 10670 10670 10669 10668 10667
10520 10523 10522 10524 10527 10528 10529 10531 10534 10538 10540 10540 10542 10545 10547 10549 10552 10554 10556 10560 10564 10573 10581 10583 10584 10589 10593 10595 10598 10603 10609 10610 10610 10611 10611 10616 10628 10637 10639 10641 10642 10643 10645 10647 10649 10650 10652 10652 10653 10655 10654 10653 10653 10655 10657 10659 10662 10663 10663 10664 10665 10666 10667 10667 10667 10667 10667 10666 10664 10662 10660 10658 10658 10659 10662 10663 10663 10664 10665 10665 10665 10666 10667 10667 10666 10665
10516 10517 10518 10520 10522 10523 10525 10529 10531 10533 10534 10536 10540 10543 10544 10546 10549 10551 10553 10557 10563 10572 10576 10576 10579 10583 10587 10590 10592 10597 10601 10602 10602 10603 10607 10616 10627 10633 10635 10636 10637 10639 10640 10643 10644 10645 10646 10648 10651 10651 10649 10649 10650 10651 10653 10654 10656 10657 10657 10658 10660 10662 10662 10662 10663 10663 10663 10662 10660 10659 10658 10656 10656 10657 10658 10658 10659 10659 10660 10660 10661 10662 10664 10664 10664 10663
10511 10513 10514 10515 10516 10518 10522 10525 10527 10528 10530 10533 10536 10538 10540 10542 10545 10547 10550 10555 10562 10568 10569 10570 10575 10578 10582 10584 10586 10590 10594 10596 10597 10600 10607 10617 10624 10628 10630 10631 10632 10633 10635 10636 10637 10639 10641 10645 10648 10648 10645 10646 10647 10647 10648 10649 10650 10650 10651 10652 10654 10656 10657 10656 10657 10658 10659 10658 10656 10656 10656 10654 10653 10654 10654 10654 10655 10656 10656 10656 10656 10658 10660 10661 10661 10660
10507 10509 10509 10510 10511 10514 10518 10521 10522 10524 10526 10529 10532 10533 10536 10538 10540 10544 10547 10552 10559 10563 10562 10564 10570 10574 10576 10577 10579 10584 10588 10592 10594 10596 10604 10614 10619 10622 10624 10625 10625 10626 10627 10630 10633 10636 10639 10642 10643 10642 10641 10642 10643 10643 10644 10644 10644 10645 10645 10647 10649 10650 10650 10650 10650 10651 10652 10653 10653 10653 10653 10652 10651 10650 10650 10651 10652 10652 10651 10651 10651 10653 10655 10656 10657 10656
10503 10505 10505 10505 10507 10511 10515 10517 10518 10520 10522 10525 10527 10530 10532 10534 10537 10540 10544 10550 10556 10556 10556 10559 10564 10568 10570 10570 10574 10580 10584 10587 10588 10589 10598 10608 10613 10616 10617 10617 10617 10619 10622 10626 10630 10632 10634 10635 10636 10636 10637 10639 10639 10639 10640 10640 10640 10640 10641 10642 10642 10643 10643 10644 10645 10646 10647 10648 10648 10648 10649 10648 10647 10646 10646 10647 10648 10647 10647 10646 10646 10647 10649 10650 10651 10651
10499 10501 10501 10501 10504 10507 10511 10512 10513 10515 10518 10521 10523 10526 10528 10530 10534 10537 10541 10546 10550 10551 10551 10553 10557 10563 10565 10566 10571 10577 10579 10580 10581 10584 10595 10604 10608 10610 10610 10611 10612 10615 10618 10621 10623 10625 10627 10628 10629 10630 10632 10633 10633 10634 10635 10635 10636 10636 10637 10637 10637 10637 10638 10639 10640 10642 10643 10643 10643 10644 10644 10644 10642 10642 10643 10643 10642 10642 10641 10641 10641 10641 10642 10643 10644 10645
10495 10496 10496 10497 10500 10503 10505 10507 10509 10512 10515 10517 10519 10522 10525 10528 10532 10534 10537 10541 10544 10545 10545 10548 10554 10560 10562 10564 10569 10572 10574 10575 10576 10582 10592 10600 10604 10605 10606 10606 10606 10608 10610 10612 10615 10618 10620 10621 10622 10624 10625 10627 10628 10629 10630 10631 10632 10632 10633 10633 10633 10633 10633 10634 10636 10638 10638 10638 10638 10638 10639 10639 10638 10638 10639 10638 10637 10636 10636 10635 10635 10635 10636 10637 10638 10638
10490 10491 10492 10493 10496 10499 10501 10502 10506 10509 10511 10513 10516 10520 10523 10525 10527 10530 10533 10536 10539 10541 10542 10546 10553 10557 10560 10563 10565 10567 10569 10571 10573 10579 10588 10596 10599 10600 10600 10599 10598 10599 10602 10606 10609 10612 10613 10614 10616 10618 10620 10623 10624 10625 10626 10627 10628 10628 10628 10629 10629 10629 10629 10631 10632 10634 10633 10633 10633 10633 10633 10633 10633 10633 10633 10633 10631 10631 10630 10630 10629 10630 10631 10631 10632 10632
10486 10487 10488 10490 10493 10495 10496 10499 10503 10505 10507 10509 10513 10517 10518 10519 10522 10525 10529 10532 10535 10538 10540 10545 10550 10553 10556 10559 10561 10563 10565 10568 10571 10575 10582 10589 10593 10593 10593 10592 10592 10595 10599 10601 10603 10605 10607 10608 10610 10613 10616 10618 10619 10620 10621 10623 10624 10623 10624 10625 10625 10626 10627 10628 10629 10630 10629 10629 10628 10628 10628 10628 10628 10627 10628 10629 10627 10626 10626 10625 10625 10625 10626 10626 10627 10627
10482 10484 10485 10487 10490 10491 10492 10495 10499 10500 10503 10505 10508 10512 10513 10515 10519 10522 10525 10528 10531 10535 10538 10540 10545 10548 10552 10555 10558 10562 10565 10566 10567 10570 10576 10583 10587 10587 10587 10587 10589 10592 10595 10596 10598 10600 10603 10604 10605 10608 10611 10613 10614 10616 10618 10619 10619 10619 10619 10621 10622 10623 10624 10625 10626 10626 10626 10625 10624 10624 10624 10624 10623 10622 10623 10624 10623 10622 10621 10621 10621 10621 10622 10622 10622 10622
10478 10480 10482 10483 10486 10486 10488 10491 10495 10496 10499 10502 10505 10507 10508 10511 10515 10519 10522 10525 10529 10532 10534 10536 10539 10543 10547 10551 10555 10562 10566 10563 10562 10566 10572 10577 10581 10583 10584 10585 10586 10589 10591 10592 10594 10597 10599 10600 10602 10604 10607 10609 10611 10613 10615 10614 10614 10616 10617 10619 10620 10621 10621 10622 10622 10622 10622 10621 10621 10620 10620 10619 10618 10617 10618 10618 10618 10618 10617 10616 10617 10617 10617 10618 10618 10618
10475 10476 10478 10479 10481 10482 10484 10488 10490 10492 10494 10498 10501 10502 10503 10507 10512 10515 10518 10522 10524 10527 10529 10531 10535 10539 10543 10547 10552 10558 10561 10558 10557 10562 10567 10572 10577 10579 10580 10580 10582 10584 10586 10588 10591 10593 10596 10598 10600 10603 10605 10606 10607 10609 10610 10610 10612 10615 10616 10616 10617 10617 10618 10619 10619 10619 10618 10618 10617 10616 10615 10615 10613 10613 10613 10613 10613 10613 10612 10612 10612 10612 10613 10613 10613 10613
10471 10473 10474 10475 10477 10478 10481 10483 10485 10487 10489 10493 10495 10497 10500 10504 10507 10509 10514 10517 10519 10522 10524 10526 10530 10536 10540 10544 10549 10553 10554 10552 10553 10558 10564 10569 10572 10574 10575 10576 10578 10580 10582 10584 10587 10590 10592 10595 10598 10600 10601 10602 10603 10605 10607 10609 10611 10613 10614 10614 10614 10614 10614 10615 10614 10614 10614 10613 10612 10611 10610 10610 10608 10608 10608 10608 10608 10608 10607 10607 10607 10607 10607 10607 10607 10608
10468 10471 10471 10472 10473 10475 10477 10478 10480 10483 10485 10488 10491 10493 10496 10499 10501 10505 10508 10511 10513 10516 10519 10521 10526 10534 10540 10542 10544 10547 10548 10548 10550 10554 10560 10565 10568 10569 10571 10572 10574 10576 10578 10580 10583 10585 10588 10591 10594 10596 10597 10598 10599 10602 10604 10606 10609 10611 10610 10609 10609 10609 10610 10610 10609 10608 10608 10608 10607 10606 10605 10604 10603 10603 10602 10602 10602 10602 10601 10601 10601 10601 10601 10601 10601 10601
10463 10465 10467 10469 10470 10472 10473 10475 10478 10480 10481 10484 10488 10490 10491 10494 10497 10500 10503 10506 10509 10511 10514 10516 10520 10529 10537 10539 10540 10543 10544 10545 10548 10551 10555 10559 10563 10565 10567 10569 10572 10574 10576 10577 10579 10581 10584 10587 10590 10592 10593 10595 10596 10598 10600 10603 10608 10609 10606 10601 10600 10601 10602 10603 10603 10603 10602 10602 10601 10601 10600 10598 10597 10597 10596 10596 10595 10595 10595 10596 10595 10595 10595 10594 10594 10594
10457 10459 10462 10465 10467 10469 10470 10472 10474 10476 10479 10482 10484 10485 10486 10488 10491 10494 10497 10500 10503 10505 10508 10512 10516 10522 10530 10534 10537 10541 10542 10543 10546 10549 10551 10552 10556 10560 10562 10565 10568 10570 10572 10574 10575 10577 10580 10583 10585 10587 10589 10590 10592 10594 10595 10598 10601 10599 10596 10591 10589 10591 10594 10595 10596 10597 10596 10596 10596 10595 10594 10593 10592 10591 10590 10589 10589 10589 10589 10589 10589 10589 10589 10588 10588 10588
10453 10456 10458 10461 10463 10465 10467 10469 10470 10472 10475 10477 10479 10480 10481 10484 10487 10489 10492 10495 10498 10500 10503 10507 10512 10516 10523 10530 10535 10539 10542 10542 10543 10545 10546 10545 10548 10553 10556 10561 10564 10566 10568 10569 10571 10573 10575 10577 10579 10581 10584 10586 10586 10587 10589 10592 10591 10589 10587 10583 10581 10584 10588 10590 10592 10592 10590 10589 10589 10588 10587 10586 10585 10584 10584 10583 10583 10583 10583 10582 10582 10582 10582 10581 10581 10581
10449 10452 10455 10457 10459 10461 10463 10465 10466 10468 10471 10472 10473 10474 10477 10481 10485 10488 10491 10494 10496 10498 10501 10505 10509 10513 10519 10525 10531 10535 10537 10537 10538 10539 10540 10539 10542 10547 10551 10556 10560 10561 10563 10564 10566 10568 10570 10572 10574 10576 10578 10580 10581 10582 10585 10586 10584 10583 10581 10577 10576 10579 10583 10586 10589 10589 10588 10585 10581 10579 10578 10577 10577 10576 10576 10577 10576 10576 10576 10576 10576 10575 10575 10575 10575 10575
10443 10447 10451 10453 10455 10457 10459 10461 10463 10466 10468 10467 10467 10469 10474 10478 10481 10485 10489 10492 10493 10495 10498 10503 10507 10510 10514 10519 10524 10528 10528 10529 10531 10533 10535 10536 10538 10542 10546 10550 10553 10555 10556 10557 10559 10562 10564 10566 10569 10571 10574 10576 10578 10581 10582 10580 10577 10575 10573 10570 10570 10574 10577 10580 10582 10583 10583 10582 10578 10575 10571 10569 10568 10568 10568 10569 10569 10569 10569 10569 10569 10569 10569 10569 10569 10568
10437 10441 10445 10448 10450 10453 10455 10458 10460 10461 10462 10462 10462 10465 10470 10473 10476 10480 10484 10486 10489 10491 10494 10497 10501 10505 10508 10511 10516 10520 10521 10522 10524 10526 10530 10532 10535 10537 10539 10542 10545 10548 10549 10550 10553 10556 10558 10560 10562 10565 10568 10570 10572 10574 10573 10570 10567 10566 10565 10563 10565 10568 10571 10573 10574 10574 10574 10575 10574 10572 10567 10563 10561 10561 10561 10562 10562 10561 10562 10562 10562 10562 10562 10563 10563 10562
10432 10436 10439 10442 10445 10448 10451 10453 10454 10456 10456 10457 10459 10462 10466 10469 10471 10475 10478 10480 10483 10485 10488 10492 10496 10499 10502 10505 10508 10512 10513 10514 10517 10520 10524 10528 10530 10532 10533 10535 10538 10540 10542 10544 10547 10550 10552 10552 10553 10555 10556 10556 10557 10560 10560 10559 10558 10559 10558 10558 10559 10562 10564 10566 10567 10566 10566 10567 10567 10565 10562 10558 10556 10555 10555 10555 10555 10554 10554 10554 10555 10555 10556 10556 10556 10556
10427 10430 10433 10435 10439 10442 10445 10447 10450 10451 10451 10452 10455 10459 10462 10464 10466 10469 10472 10474 10476 10479 10482 10487 10490 10493 10496 10500 10504 10506 10506 10507 10511 10516 10518 10521 10524 10524 10525 10527 10530 10533 10535 10538 10541 10544 10546 10546 10546 10545 10545 10544 10546 10549 10552 10552 10552 10552 10552 10552 10553 10555 10557 10559 10560 10560 10560 10560 10560 10559 10557 10554 10551 10549 10549 10548 10546 10545 10545 10545 10546 10548 10549 10549 10549 10549
10421 10424 10427 10429 10432 10436 10440 10443 10444 10446 10447 10447 10450 10454 10456 10458 10460 10463 10467 10469 10471 10473 10477 10480 10483 10486 10490 10494 10498 10498 10497 10500 10506 10510 10512 10514 10516 10516 10517 10519 10522 10526 10528 10531 10534 10537 10539 10539 10539 10539 10539 10539 10541 10543 10545 10545 10545 10545 10545 10545 10546 10547 10550 10552 10553 10554 10554 10554 10553 10553 10552 10549 10545 10544 10545 10543 10539 10536 10537 10538 10539 10541 10541 10542 10542 10542
10415 10418 10421 10423 10426 10431 10434 10435 10435 10438 10441 10443 10444 10447 10451 10454 10456 10458 10461 10465 10468 10470 10472 10474 10477 10480 10483 10487 10488 10488 10489 10495 10501 10504 10506 10508 10509 10509 10509 10511 10515 10518 10522 10524 10527 10529 10531 10532 10533 10533 10535 10536 10537 10537 10538 10537 10537 10537 10537 10538 10539 10541 10543 10545 10546 10546 10547 10546 10545 10545 10544 10542 10540 10539 10540 10539 10534 10529 10529 10531 10532 10534 10535 10535 10536 10536
10407 10410 10414 10416 10419 10424 10425 10425 10428 10433 10436 10438 10439 10442 10446 10449 10451 10453 10455 10459 10464 10466 10467 10468 10471 10473 10475 10476 10477 10478 10483 10490 10495 10497 10499 10501 10502 10502 10503 10504 10507 10510 10514 10518 10520 10522 10524 10525 10526 10527 10528 10529 10529 10528 10528 10528 10528 10528 10529 10531 10533 10534 10536 10537 10537 10536 10536 10537 10537 10536 10535 10535 10534 10533 10533 10532 10528 10524 10523 10524 10525 10527 10528 10528 10529 10529
10400 10403 10407 10409 10411 10415 10418 10419 10423 10427 10431 10433 10434 10436 10439 10443 10446 10446 10447 10451 10455 10459 10461 10463 10464 10465 10465 10465 10467 10470 10476 10482 10486 10489 10491 10493 10495 10496 10496 10497 10499 10502 10505 10509 10512 10515 10517 10518 10519 10520 10519 10519 10519 10518 10518 10518 10519 10520 10521 10523 10525 10526 10526 10525 10525 10525 10525 10527 10529 10529 10529 10528 10527 10526 10525 10524 10522 10519 10517 10516 10517 10519 10520 10521 10522 10523
10395 10398 10401 10401 10404 10409 10412 10413 10416 10420 10425 10427 10429 10430 10433 10436 10438 10438 10441 10445 10448 10450 10454 10456 10457 10456 10455 10456 10460 10465 10470 10474 10477 10480 10483 10485 10487 10488 10489 10490 10491 10493 10496 10499 10502 10505 10507 10509 10510 10511 10511 10510 10510 10509 10509 10509 10509 10510 10512 10514 10515 10515 10514 10514 10515 10516 10517 10518 10520 10521 10521 10520 10518 10517 10517 10517 10515 10512 10509 10508 10509 10511 10512 10514 10515 10516
10390 10392 10394 10395 10398 10402 10405 10407 10411 10415 10418 10421 10423 10425 10426 10428 10429 10431 10436 10439 10440 10442 10445 10448 10450 10451 10449 10451 10455 10460 10464 10467 10470 10472 10475 10477 10478 10480 10481 10483 10483 10484 10486 10488 10491 10493 10495 10497 10499 10500 10500 10500 10501 10500 10500 10500 10500 10501 10503 10505 10506 10506 10505 10505 10506 10508 10508 10509 10510 10510 10510 10510 10509 10509 10509 10509 10506 10504 10502 10502 10502 10504 10505 10506 10506 10506
10386 10387 10388 10389 10392 10396 10399 10403 10407 10409 10411 10414 10417 10418 10419 10421 10422 10424 10428 10431 10432 10435 10438 10441 10443 10444 10444 10445 10449 10453 10457 10460 10463 10465 10466 10468 10469 10471 10473 10474 10474 10475 10476 10478 10481 10483 10485 10487 10488 10488 10489 10490 10490 10491 10491 10492 10492 10494 10495 10497 10498 10497 10497 10497 10499 10499 10500 10500 10500 10500 10500 10499 10500 10500 10500 10499 10498 10497 10496 10495 10495 10495 10496 10496 10496 10496
10379 10381 10383 10383 10385 10389 10393 10397 10401 10402 10403 10406 10409 10411 10412 10412 10413 10415 10419 10422 10425 10428 10431 10434 10435 10435 10436 10439 10443 10447 10451 10454 10456 10457 10458 10459 10460 10462 10463 10464 10465 10466 10467 10469 10472 10474 10476 10478 10478 10478 10479 10480 10480 10481 10482 10483 10483 10485 10486 10488 10488 10488 10488 10488 10489 10490 10490 10490 10491 10491 10491 10490 10490 10490 10489 10490 10489 10489 10488 10487 10485 10485 10486 10486 10486 10485
10373 10375 10376 10377 10379 10382 10386 10391 10393 10394 10397 10399 10402 10405 10405 10404 10404 10406 10408 10413 10416 10419 10424 10428 10428 10428 10429 10433 10437 10442 10446 10448 10449 10449 10449 10450 10451 10453 10454 10455 10456 10458 10460 10461 10463 10465 10467 10469 10469 10469 10470 10470 10471 10471 10471 10472 10473 10474 10475 10476 10476 10476 10476 10477 10478 10479 10479 10479 10480 10481 10481 10481 10480 10480 10480 10480 10480 10479 10478 10477 10475 10475 10475 10476 10476 10475
10367 10368 10369 10370 10373 10376 10379 10382 10386 10388 10389 10392 10395 10398 10399 10398 10398 10397 10399 10405 10410 10414 10420 10423 10423 10422 10424 10428 10433 10437 10439 10439 10438 10438 10439 10441 10443 10445 10446 10448 10449 10451 10452 10454 10455 10456 10458 10459 10460 10460 10461 10461 10462 10461 10461 10462 10462 10463 10465 10465 10465 10464 10465 10466 10467 10467 10467 10468 10469 10470 10470 10471 10471 10471 10470 10470 10469 10468 10467 10467 10466 10465 10466 10467 10467 10467
10359 10360 10361 10363 10365 10367 10369 10373 10378 10380 10382 10383 10386 10390 10392 10393 10392 10390 10392 10399 10405 10410 10415 10418 10417 10417 10419 10422 10426 10428 10428 10429 10430 10430 10431 10433 10435 10437 10438 10440 10442 10443 10444 10445 10446 10447 10448 10449 10450 10450 10451 10452 10452 10452 10452 10452 10452 10453 10454 10454 10454 10454 10454 10455 10455 10455 10455 10455 10456 10457 10458 10459 10460 10460 10459 10458 10458 10458 10458 10458 10457 10456 10456 10456 10457 10457
10350 10353 10355 10355 10357 10360 10361 10366 10371 10373 10375 10376 10379 10381 10384 10386 10386 10385 10386 10390 10396 10401 10405 10408 10409 10410 10412 10414 10416 10418 10420 10422 10423 10423 10423 10424 10427 10429 10431 10432 10434 10435 10436 10437 10437 10437 10438 10439 10440 10441 10441 10441 10442 10442 10443 10443 10443 10443 10444 10445 10444 10444 10444 10444 10444 10444 10444 10443 10444 10444 10445 10446 10447 10447 10446 10446 10446 10446 10446 10445 10445 10444 10443 10442 10443 10443
10344 10348 10350 10349 10351 10354 10356 10360 10364 10366 10368 10370 10372 10374 10377 10379 10380 10380 10380 10382 10386 10391 10396 10398 10399 10399 10402 10405 10408 10411 10414 10416 10416 10415 10415 10416 10419 10421 10423 10424 10426 10426 10427 10428 10428 10428 10428 10429 10430 10431 10431 10432 10432 10433 10433 10433 10433 10433 10434 10435 10435 10435 10435 10435 10435 10434 10434 10434 10434 10434 10434 10435 10435 10434 10434 10433 10433 10432 10432 10431 10430 10430 10429 10428 10428 10429
10339 10343 10344 10343 10345 10349 10352 10355 10358 10359 10361 10364 10367 10368 10370 10372 10372 10374 10376 10375 10376 10379 10385 10389 10388 10388 10390 10395 10400 10404 10407 10408 10408 10406 10405 10406 10410 10412 10414 10415 10416 10416 10416 10417 10418 10418 10419 10419 10420 10420 10421 10422 10423 10423 10424 10424 10423 10423 10424 10425 10425 10425 10426 10426 10425 10425 10425 10425 10424 10424 10424 10424 10424 10423 10423 10422 10421 10420 10419 10418 10417 10416 10415 10415 10415 10415
10332 10335 10337 10337 10339 10342 10346 10349 10351 10352 10354 10357 10360 10362 10364 10364 10364 10366 10369 10369 10368 10369 10372 10375 10377 10379 10382 10386 10391 10394 10396 10397 10398 10397 10397 10398 10400 10402 10404 10404 10405 10405 10405 10405 10407 10409 10409 10409 10410 10409 10410 10411 10412 10413 10414 10413 10413 10414 10414 10414 10415 10415 10415 10415 10415 10415 10414 10414 10413 10414 10413 10413 10412 10412 10411 10411 10410 10410 10409 10407 10406 10405 10403 10402 10402 10402
10324 10327 10329 10331 10332 10334 10338 10341 10343 10344 10346 10349 10353 10355 10356 10356 10356 10357 10359 10361 10360 10360 10360 10362 10365 10369 10373 10376 10379 10381 10383 10386 10387 10389 10389 10389 10390 10392 10393 10393 10394 10395 10394 10394 10397 10399 10400 10400 10399 10399 10400 10401 10402 10403 10403 10402 10402 10403 10405 10405 10405 10405 10405 10404 10403 10403 10402 10402 10402 10402 10401 10401 10401 10400 10399 10399 10398 10397 10397 10395 10394 10393 10391 10390 10389 10389
10317 10319 10322 10324 10325 10326 10329 10331 10333 10335 10337 10341 10344 10345 10346 10346 10347 10347 10349 10351 10351 10351 10352 10353 10355 10358 10362 10365 10367 10369 10372 10375 10376 10378 10379 10380 10380 10382 10382 10382 10384 10385 10384 10384 10386 10388 10389 10390 10389 10389 10389 10390 10391 10391 10391 10391 10391 10392 10394 10394 10395 10394 10393 10392 10392 10391 10391 10391 10390 10390 10390 10390 10389 10388 10387 10386 10385 10384 10383 10382 10381 10380 10379 10378 10377 10376
10308 10310 10313 10316 10317 10318 10321 10322 10324 10326 10329 10331 10333 10334 10335 10336 10337 10337 10339 10340 10341 10342 10343 10344 10345 10347 10350 10352 10355 10359 10362 10362 10363 10365 10368 10370 10371 10372 10372 10371 10373 10374 10374 10373 10374 10377 10378 10378 10377 10378 10379 10379 10380 10379 10379 10380 10381 10381 10382 10382 10382 10382 10381 10381 10381 10380 10380 10379 10378 10378 10377 10377 10376 10375 10374 10372 10370 10369 10368 10367 10366 10366 10366 10364 10363 10362
10300 10301 10304 10307 10309 10311 10313 10313 10314 10317 10320 10322 10323 10323 10324 10326 10327 10328 10329 10330 10331 10332 10332 10333 10334 10336 10339 10341 10344 10348 10350 10350 10351 10353 10355 10358 10360 10361 10361 10361 10361 10362 10363 10362 10363 10365 10366 10365 10364 10365 10366 10368 10368 10367 10367 10367 10368 10369 10370 10370 10370 10369 10369 10369 10369 10369 10368 10367 10366 10365 10365 10364 10363 10361 10360 10358 10357 10355 10354 10353 10352 10352 10351 10350 10348 10348
10293 10294 10295 10298 10300 10302 10303 10304 10306 10308 10310 10311 10311 10311 10313 10315 10316 10318 10319 10319 10320 10321 10322 10322 10323 10325 10328 10332 10335 10338 10338 10338 10338 10340 10342 10345 10347 10349 10349 10349 10349 10350 10351 10351 10352 10354 10354 10353 10352 10352 10353 10355 10355 10355 10355 10355 10356 10357 10357 10357 10357 10357 10357 10357 10356 10356 10355 10354 10353 10352 10351 10350 10348 10347 10345 10344 10343 10342 10340 10339 10337 10336 10336 10335 10333 10332
10287 10288 10289 10290 10291 10292 10293 10296 10299 10299 10299 10300 10301 10302 10302 10303 10305 10306 10307 10307 10309 10310 10311 10312 10312 10314 10318 10321 10324 10326 10326 10324 10323 10325 10330 10334 10336 10337 10336 10335 10336 10338 10338 10338 10339 10341 10341 10340 10340 10341 10341 10342 10342 10343 10343 10344 10345 10345 10345 10344 10344 10344 10344 10344 10343 10341 10340 10339 10338 10338 10336 10335 10333 10332 10330 10330 10329 10328 10327 10325 10323 10321 10321 10320 10319 10317